STARLINK-11290 [DTC]

Last updated on Sun Oct 06 2024 00:02:04 GMT+0000 (Coordinated Universal Time)

1 61000U 24158L 24279.40001675 .00008888 00000+0 58217-4 0 9992 2 61000 53.1573 326.3627 0001202 116.7779 243.3365 15.76740243 5937
UTC large
Height (km)
Speed (km/s)
/
Latitude / Longitude
Inclination (degrees)
Orbital Period (minutes)
Azimuth
Elevation
Range (km)
Doppler Factor

Next 0 passes for location: London (51.5072 / 0.1276)

Sorry there are no passes over London.